星链-31275 (STARLINK-31275 )

导读

STARLINK-31275是美国SpaceX星链卫星互联网项目的卫星,于2024年3月10日发射。作为星链低轨星座的组成部分,它为全球提供高速互联网服务,覆盖偏远地区与传统网络难以抵达区域,助力海上、航空移动场景联网,进一步扩充星链星座规模,提升星座网络容量与覆盖稳定性。

Basic Information
目录编号:
59197
目录名称:
STARLINK-31275
国际标识:
2024-045V
轨道中心:
EARTH
卫星名称:
星链-31275
卫星全名:
星链-31275 (STARLINK-31275 )
卫星状态:
在轨 (已飞行908 天)
发射日期:
2024-03-10 UTC
国别 :
美国 (US)
星等 :
--
Orbit Information
数据来源 国际轨道数据
星历时间: 2026-09-04T11:53:22+0800
13小时前
查看轨道信息
半长轴: 6861.155km
偏心率: 0.0001358
轨道倾角: 43.001°
近地点辐角 269.454°
升交点赤经 164.865°
平近点角 90.615°
近地点: 482.086km
远地点: 483.95km
周期: 94.266分钟
每日圈数: 15.275907
Detailed Information
固有亮度:
5
最大亮度:
0.3
卫星平台:
Starlink v2.0 mini
覆盖范围:
全球
运营商:
太空探索技术公司
运营商所在国:
美国
制造商(研发单位):
太空探索技术公司
制造商所在国:
美国
使用方式:
暂无
Satellite Introduction
星链(Starlink)计划是由太空探索技术公司(SpaceX)提出的一个巨型低轨卫星互联网星座项目,计划在2019年至2024年间在太空搭建由约1.2万颗卫星组成的“星链”网络,其中1584颗将部署在地球上空550千米处的近地轨道,并从2020年开始工作。该卫星仍在工作。
2D Orbit Map
3D Orbit Map
Orbit Altitude Analysis Chart
Orbit Inclination Analysis Chart
Orbit Comprehensive Analysis Chart
View Comprehensive Chart
Conjunction Data List
Event ID Objects TCA Miss Dist (km) Collision Risk Probability Collision Risk Index (CRI) Action
CDM_260907-035105-919706-793321
2026-09-07T
03:51:25+0000
0.501 km
远距离
1.402924E-4 高风险 0.78
CDM_260906-132205-561805-919721
2026-09-06T
13:22:55+0000
0.624 km
远距离
7.858578E-5 中风险 0.73
CDM_260906-143005-919705-933021
2026-09-06T
14:30:36+0000
0.694 km
远距离
5.635252E-5 中风险 0.7
CDM_260907-021705-919706-793321
2026-09-07T
02:17:16+0000
0.743 km
远距离
4.665811E-5 中风险 0.68
CDM_260906-211805-919705-961021
2026-09-06T
21:18:28+0000
0.753 km
远距离
3.303268E-5 中风险 0.65
CDM_260906-194405-919705-961021
2026-09-06T
19:44:19+0000
0.909 km
远距离
1.772495E-5 中风险 0.6
CDM_260906-114805-561805-919721
2026-09-06T
11:48:46+0000
1.016 km
极远距离
1.649518E-5 中风险 0.59
CDM_260906-160405-919705-933021
2026-09-06T
16:04:45+0000
1.028 km
极远距离
1.550274E-5 中风险 0.59
CDM_260907-004305-919706-793321
2026-09-07T
00:43:06+0000
1.895 km
极远距离
2.208963E-6 低风险 0.42
CDM_260906-145705-561805-919721
2026-09-06T
14:57:04+0000
2.171 km
极远距离
1.596226E-6 低风险 0.39